{"data":{"norad_id":52100,"intl_designator":"2022-029N","name":"STARLINK-3702","alt_names":[],"object_type":"PAYLOAD","status":"ACTIVE","operator":null,"country":"US","launch_date":"2022-03-19","launch_site_code":"AFETR","launch_vehicle":null,"mission":null,"orbit_class":"UNKNOWN","rcs_meters":null,"size_class":null,"mass_kg":null,"dimensions":null,"purposes":["comms"],"wikipedia_slug":null,"has_3d_model":false,"image_url":null,"decayed_at":null,"tle_current":{"epoch":"2026-05-25T02:28:43.982112Z","epoch_age_seconds":60127,"freshness":"FRESH","line1":"1 52100U 22029N   26145.10328683 -.00000099  00000+0  11898-4 0  9991","line2":"2 52100  53.2153 106.0854 0001254  73.7810 286.3321 15.08839235232197","mean_motion":15.08839235,"eccentricity":0.0001254,"inclination_deg":53.2153,"raan_deg":106.0854,"arg_perigee_deg":73.781,"mean_anomaly_deg":286.3321,"bstar":1.1898e-5,"rev_number":23219,"period_min":95.437603065777,"perigee_km":538.87822477005,"apogee_km":540.61322975805,"semimajor_km":6917.882727264,"source":"CELESTRAK","updated_at":"2026-05-25T13:38:17.069418Z"}}}